When you browse on this site, cookies collect data to enhance your experience and personalize the content and advertising you see.
Visit our Privacy Policy to learn more. By continuing to use the site, you agree to this use of cookies and data.

Hourly Weather Rhodes

Today, 8 August, Saturday

Time Temperature Precipitation Wind Pressure Humidity
00:00 +22°C° 0 mm 7 mps 728 mmHg 88%
01:00 +22°C° 0 mm 7 mps 728 mmHg 89%
02:00 +22°C° 0 mm 8 mps 728 mmHg 91%
03:00 +22°C° 0 mm 8 mps 728 mmHg 90%
04:00 +22°C° 0 mm 8 mps 728 mmHg 89%
05:00 +22°C° 0 mm 8 mps 728 mmHg 87%
06:00 +23°C° 0 mm 8 mps 728 mmHg 80%
07:00 +24°C° 0 mm 8 mps 728 mmHg 73%
08:00 +27°C° 0 mm 8 mps 728 mmHg 65%
09:00 +28°C° 0 mm 8 mps 728 mmHg 60%
10:00 +29°C° 0 mm 8 mps 728 mmHg 55%
11:00 +31°C° 0 mm 8 mps 727 mmHg 50%
12:00 +31°C° 0 mm 9 mps 727 mmHg 49%
13:00 +31°C° 0 mm 9 mps 727 mmHg 49%
14:00 +31°C° 0 mm 10 mps 727 mmHg 48%
15:00 +29°C° 0 mm 10 mps 726 mmHg 52%
16:00 +28°C° 0 mm 11 mps 726 mmHg 57%
17:00 +28°C° 0 mm 11 mps 726 mmHg 61%
18:00 +27°C° 0 mm 11 mps 726 mmHg 65%
19:00 +26°C° 0 mm 10 mps 726 mmHg 70%
20:00 +24°C° 0 mm 10 mps 726 mmHg 74%
21:00 +23°C° 0 mm 10 mps 726 mmHg 76%
22:00 +23°C° 0 mm 9 mps 726 mmHg 78%
23:00 +23°C° 0 mm 9 mps 726 mmHg 80%

Tomorrow, 9 August, Sunday

Time Temperature Precipitation Wind Pressure Humidity
00:00 +22°C° 0 mm 9 mps 726 mmHg 82%
01:00 +22°C° 0 mm 9 mps 725 mmHg 84%
02:00 +22°C° 0 mm 9 mps 725 mmHg 86%
03:00 +22°C° 0 mm 8 mps 725 mmHg 86%
04:00 +22°C° 0 mm 8 mps 725 mmHg 87%
05:00 +22°C° 0 mm 8 mps 724 mmHg 87%
06:00 +23°C° 0 mm 7 mps 724 mmHg 79%
07:00 +26°C° 0 mm 7 mps 725 mmHg 71%
08:00 +27°C° 0 mm 6 mps 725 mmHg 62%
09:00 +28°C° 0 mm 7 mps 725 mmHg 58%
10:00 +29°C° 0 mm 7 mps 725 mmHg 53%
11:00 +30°C° 0 mm 7 mps 725 mmHg 48%
12:00 +30°C° 0 mm 7 mps 725 mmHg 47%
13:00 +32°C° 0 mm 7 mps 725 mmHg 46%
14:00 +32°C° 0 mm 7 mps 725 mmHg 45%
15:00 +30°C° 0 mm 7 mps 725 mmHg 52%
16:00 +29°C° 0 mm 7 mps 725 mmHg 58%
17:00 +28°C° 0 mm 7 mps 724 mmHg 65%
18:00 +26°C° 0 mm 7 mps 725 mmHg 73%
19:00 +23°C° 0 mm 6 mps 725 mmHg 82%
20:00 +22°C° 0 mm 6 mps 725 mmHg 90%
21:00 +22°C° 0 mm 5 mps 725 mmHg 90%
22:00 +22°C° 0 mm 5 mps 725 mmHg 91%
23:00 +22°C° 0 mm 5 mps 725 mmHg 91%

Day after tomorrow, 10 August, Monday

Time Temperature Precipitation Wind Pressure Humidity
00:00 +21°C° 0 mm 4 mps 725 mmHg 91%
01:00 +21°C° 0 mm 4 mps 725 mmHg 92%
02:00 +21°C° 0 mm 3 mps 724 mmHg 93%
03:00 +21°C° 0 mm 3 mps 724 mmHg 92%
04:00 +21°C° 0 mm 2 mps 724 mmHg 91%
05:00 +22°C° 0 mm 1 mps 725 mmHg 91%
06:00 +24°C° 0 mm 1 mps 725 mmHg 80%
07:00 +27°C° 0 mm 1 mps 725 mmHg 69%
08:00 +29°C° 0 mm 1 mps 725 mmHg 59%
09:00 +30°C° 0 mm 1 mps 726 mmHg 54%
10:00 +32°C° 0 mm 2 mps 726 mmHg 49%
11:00 +35°C° 0 mm 2 mps 726 mmHg 45%
12:00 +34°C° 0 mm 3 mps 726 mmHg 46%
13:00 +34°C° 0 mm 3 mps 726 mmHg 47%
14:00 +34°C° 0 mm 4 mps 726 mmHg 48%
15:00 +33°C° 0 mm 5 mps 726 mmHg 49%
16:00 +32°C° 0 mm 5 mps 726 mmHg 51%
17:00 +30°C° 0 mm 5 mps 726 mmHg 52%
18:00 +28°C° 0 mm 5 mps 726 mmHg 61%
19:00 +26°C° 0 mm 5 mps 727 mmHg 69%
20:00 +23°C° 0 mm 4 mps 727 mmHg 77%
21:00 +23°C° 0 mm 4 mps 727 mmHg 79%
22:00 +23°C° 0 mm 4 mps 727 mmHg 81%
23:00 +23°C° 0 mm 4 mps 727 mmHg 82%

11 August, Tuesday

Time Temperature Precipitation Wind Pressure Humidity
00:00 +23°C° 0 mm 4 mps 727 mmHg 79%
01:00 +24°C° 0 mm 3 mps 727 mmHg 75%
02:00 +24°C° 0 mm 3 mps 727 mmHg 72%
03:00 +24°C° 0 mm 3 mps 727 mmHg 73%
04:00 +24°C° 0 mm 3 mps 727 mmHg 75%
05:00 +23°C° 0 mm 4 mps 727 mmHg 76%
06:00 +26°C° 0 mm 4 mps 727 mmHg 66%
07:00 +29°C° 0 mm 4 mps 727 mmHg 55%
08:00 +32°C° 0 mm 4 mps 727 mmHg 45%
09:00 +33°C° 0 mm 4 mps 728 mmHg 41%
10:00 +34°C° 0 mm 4 mps 728 mmHg 38%
11:00 +35°C° 0 mm 5 mps 728 mmHg 34%
12:00 +36°C° 0 mm 5 mps 728 mmHg 33%
13:00 +36°C° 0 mm 6 mps 728 mmHg 32%
14:00 +36°C° 0 mm 6 mps 728 mmHg 30%
15:00 +35°C° 0 mm 6 mps 727 mmHg 36%
16:00 +33°C° 0 mm 7 mps 727 mmHg 42%
17:00 +32°C° 0 mm 7 mps 727 mmHg 47%
18:00 +29°C° 0 mm 6 mps 727 mmHg 57%
19:00 +27°C° 0 mm 6 mps 727 mmHg 67%
20:00 +25°C° 0 mm 5 mps 727 mmHg 76%
21:00 +25°C° 0 mm 5 mps 727 mmHg 76%
22:00 +25°C° 0 mm 5 mps 727 mmHg 76%
23:00 +25°C° 0 mm 5 mps 727 mmHg 76%

12 August, Wednesday

Time Temperature Precipitation Wind Pressure Humidity
00:00 +25°C° 0 mm 5 mps 727 mmHg 73%
01:00 +25°C° 0 mm 4 mps 727 mmHg 69%
02:00 +25°C° 0 mm 3 mps 726 mmHg 66%
03:00 +25°C° 0 mm 3 mps 726 mmHg 65%
04:00 +25°C° 0 mm 3 mps 726 mmHg 65%
05:00 +24°C° 0 mm 3 mps 726 mmHg 65%
06:00 +27°C° 0 mm 3 mps 726 mmHg 56%
07:00 +30°C° 0 mm 3 mps 726 mmHg 48%
08:00 +33°C° 0 mm 3 mps 727 mmHg 39%
09:00 +35°C° 0 mm 3 mps 727 mmHg 36%
10:00 +36°C° 0 mm 3 mps 727 mmHg 33%
11:00 +37°C° 0 mm 4 mps 727 mmHg 31%
12:00 +37°C° 0 mm 4 mps 727 mmHg 30%
13:00 +37°C° 0 mm 5 mps 727 mmHg 29%
14:00 +38°C° 0 mm 6 mps 727 mmHg 29%
15:00 +36°C° 0 mm 6 mps 726 mmHg 32%
16:00 +35°C° 0 mm 6 mps 726 mmHg 35%
17:00 +34°C° 0 mm 6 mps 726 mmHg 38%
18:00 +30°C° 0 mm 5 mps 726 mmHg 47%
19:00 +28°C° 0 mm 5 mps 727 mmHg 56%
20:00 +25°C° 0 mm 5 mps 727 mmHg 66%
21:00 +25°C° 0 mm 5 mps 727 mmHg 63%
22:00 +26°C° 0 mm 5 mps 727 mmHg 59%
23:00 +26°C° 0 mm 5 mps 727 mmHg 56%

13 August, Thursday

Time Temperature Precipitation Wind Pressure Humidity
00:00 +26°C° 0 mm 5 mps 726 mmHg 56%
01:00 +26°C° 0 mm 5 mps 726 mmHg 56%
02:00 +26°C° 0 mm 5 mps 726 mmHg 55%
03:00 +25°C° 0 mm 5 mps 726 mmHg 57%
04:00 +25°C° 0 mm 5 mps 726 mmHg 59%
05:00 +25°C° 0 mm 5 mps 725 mmHg 61%
06:00 +27°C° 0 mm 4 mps 726 mmHg 52%
07:00 +30°C° 0 mm 3 mps 726 mmHg 43%
08:00 +34°C° 0 mm 3 mps 726 mmHg 33%
09:00 +35°C° 0 mm 3 mps 726 mmHg 30%
10:00 +37°C° 0 mm 3 mps 726 mmHg 26%
11:00 +39°C° 0 mm 3 mps 726 mmHg 23%
12:00 +39°C° 0 mm 3 mps 726 mmHg 23%
13:00 +40°C° 0 mm 4 mps 726 mmHg 23%
14:00 +40°C° 0 mm 4 mps 726 mmHg 23%
15:00 +38°C° 0 mm 4 mps 726 mmHg 25%
16:00 +36°C° 0 mm 5 mps 726 mmHg 27%
17:00 +35°C° 0 mm 5 mps 726 mmHg 30%
18:00 +33°C° 0 mm 5 mps 726 mmHg 38%
19:00 +29°C° 0 mm 4 mps 726 mmHg 46%
20:00 +27°C° 0 mm 4 mps 726 mmHg 55%
21:00 +27°C° 0 mm 4 mps 726 mmHg 50%
22:00 +28°C° 0 mm 4 mps 726 mmHg 46%
23:00 +28°C° 0 mm 3 mps 726 mmHg 42%
Show more